Probability
84 61 29 3 0 0 0 0 0 0 0 0 0 0 0 0 0 0 0 6 16 19 29 42 52 52 52 52 45 48 45 45 42 42 39 32 32 29 39 42 45 48 48 48 45 45 48 55 58
68 61 3 0 0 0 0 0 0 0 0 0 0 0 0 6 13 13 6 13 19 29 35 35 55 48 45 48 45 42 45 48 42 26 26 26 29 29 26 29 29 32 35 35 35 39 42 42 45
71 42 3 0 0 0 0 0 0 0 0 0 3 3 0 13 16 6 13 10 23 29 32 42 45 45 45 42 42 42 42 32 26 26 26 26 13 13 16 23 16 16 16 19 26 29 29 39 39
42 0 0 0 0 0 0 0 0 0 0 0 0 3 3 10 13 13 16 13 26 35 35 42 45 45 42 39 39 35 29 29 19 19 23 13 13 10 10 10 13 13 13 16 16 23 32 32 35
3 0 0 0 0 0 0 0 0 0 0 0 0 0 3 13 16 13 16 23 26 32 35 39 42 45 35 35 29 29 26 23 16 16 13 13 10 6 6 6 10 6 10 10 10 19 16 19 29
0 0 0 0 0 0 0 0 0 0 0 0 0 0 3 16 16 16 16 16 26 29 35 35 39 35 32 32 29 23 23 19 16 19 13 10 6 10 3 6 10 3 3 3 13 16 13 16 16
0 0 0 0 0 0 0 0 0 0 0 0 0 3 10 10 19 16 16 6 16 23 26 26 29 26 29 23 23 23 23 16 19 16 13 13 3 6 6 10 6 6 10 13 13 16 19 16 13
0 0 0 0 0 0 0 0 6 0 0 0 0 3 10 10 10 10 6 6 10 19 19 19 23 23 23 23 23 23 23 19 13 10 6 6 3 3 3 3 3 6 6 10 10 13 13 13 16
0 0 0 0 0 0 0 0 6 0 0 0 0 0 10 10 13 10 6 3 6 16 16 16 13 16 23 23 23 23 23 16 16 3 6 6 0 0 0 0 0 3 6 6 13 16 10 6 6
0 0 0 0 0 0 0 3 0 0 0 0 0 6 10 19 23 10 6 3 6 10 10 6 10 13 6 16 10 10 6 0 0 0 0 0 0 0 0 0 0 3 6 6 10 6 0 0 0
3 0 0 0 0 0 0 0 0 0 0 0 0 6 16 19 13 13 6 3 3 10 10 10 10 10 6 6 0 0 0 0 0 0 0 0 0 0 0 0 0 0 0 0 0 0 0 0 0
3 0 0 0 0 0 0 0 0 0 0 0 0 10 13 10 10 10 3 3 3 6 6 10 10 10 6 3 0 0 0 0 0 0 0 0 0 0 0 0 0 0 0 0 0 0 0 0 0
0 0 0 0 0 0 0 3 0 0 0 3 3 13 6 6 6 6 6 3 3 6 6 6 6 6 3 3 0 0 0 0 0 0 0 0 0 0 0 0 0 0 0 0 0 0 0 0 0
0 0 0 0 0 0 0 0 0 0 3 3 3 0 3 6 3 0 3 6 3 6 6 6 6 3 3 3 0 0 0 0 0 0 0 0 0 0 0 0 0 0 0 0 0 0 0 0 0
0 0 0 0 0 0 0 0 0 0 3 3 3 3 3 3 0 0 0 3 3 3 3 3 3 3 3 3 0 0 0 0 0 0 0 0 0 0 0 0 0 0 0 0 0 0 0 0 0
0 0 0 0 0 0 0 0 0 0 3 3 3 3 3 3 3 0 0 3 3 3 0 0 3 0 0 0 0 0 0 0 0 0 0 0 0 0 0 0 0 0 0 0 0 0 0 0 0
0 0 0 0 0 0 0 0 3 3 3 3 3 3 3 3 3 3 3 3 0 0 0 0 0 0 0 0 0 0 0 0 0 0 0 0 0 0 0 0 0 0 0 0 0 0 0 0 0
0 0 0 0 0 0 0 0 3 3 3 3 3 3 3 3 3 3 0 0 0 0 0 0 0 0 0 0 0 0 0 0 0 0 0 0 0 0 0 0 0 0 0 0 0 0 0 0 0
0 0 0 0 0 0 0 0 0 3 3 3 3 3 3 3 3 3 0 0 0 0 0 0 0 0 0 0 0 0 0 0 0 0 0 0 0 0 0 0 0 0 0 0 0 0 0 0 0
0 0 0 0 0 0 0 0 0 0 3 3 3 0 0 3 3 0 0 3 0 0 0 0 0 0 0 0 0 0 0 0 0 0 0 0 0 0 0 0 0 0 0 0 0 0 0 0 0
0 0 0 0 0 0 0 0 0 0 0 3 0 0 0 0 0 0 0 3 0 0 0 0 0 0 0 0 0 0 0 0 0 0 0 0 0 0 0 0 0 0 0 0 0 0 0 0 0
0 0 0 0 0 0 0 0 0 0 0 0 0 0 3 0 0 0 0 3 3 3 0 0 0 0 0 0 0 0 0 0 0 0 0 0 0 0 0 0 0 0 0 0 0 0 0 0 0
0 0 0 0 0 0 0 0 0 0 0 0 0 0 0 3 0 3 3 3 3 3 3 0 0 0 0 0 0 0 0 0 0 0 0 0 0 0 0 0 0 0 0 0 0 0 0 0 0
0 0 0 0 0 0 0 0 0 0 0 0 0 0 0 0 3 3 3 3 3 3 0 0 0 0 0 0 0 0 0 0 0 0 0 0 0 0 0 0 0 0 0 0 0 0 0 0 0
0 0 0 0 0 0 0 0 0 0 0 0 0 0 0 0 0 3 3 0 0 0 0 0 0 0 0 0 0 0 0 0 0 0 0 0 0 0 0 0 0 0 0 0 0 0 0 0 0
0 0 0 0 0 0 0 0 0 0 0 0 0 0 0 0 0 0 0 0 0 0 0 0 0 0 0 0 0 0 0 0 0 0 0 0 0 0 0 0 0 0 0 0 0 0 0 0 0
0 0 0 0 0 0 0 0 0 0 0 0 0 0 0 0 0 0 0 0 0 0 0 0 0 0 0 0 0 0 0 0 0 0 0 0 0 0 0 0 0 0 0 0 0 0 0 0 0
0 0 0 0 0 0 0 0 0 0 0 0 0 0 0 0 0 0 0 0 0 0 0 0 0 0 0 0 0 0 0 0 0 0 0 0 0 0 0 0 0 0 0 0 0 0 0 0 0
0 0 0 0 0 0 0 0 0 0 0 0 0 0 0 0 0 0 0 0 0 0 0 0 0 0 0 0 0 0 0 0 0 0 0 0 0 0 0 0 0 0 0 0 0 0 0 0 0
0 0 0 0 0 0 0 0 0 0 0 0 0 0 0 0 0 0 0 0 0 0 0 0 0 0 0 0 0 0 0 0 0 0 0 0 0 0 0 0 0 0 0 0 0 0 0 0 0
Height
5857 5857 5858 5859 5860 5860 5860 5860 5860 5860 5861 5861 5862 5863 5864 5866 5867 5871 5870 5869 5870 5871 5872 5873 5874 5875 5875 5876 5876 5876 5877 5877 5877 5877 5877 5877 5877 5877 5877 5877 5877 5876 5876 5876 5876 5876 5876 5876 5876
5855 5856 5857 5858 5858 5859 5859 5859 5859 5860 5861 5861 5861 5863 5863 5865 5866 5867 5868 5869 5870 5871 5872 5873 5874 5875 5875 5875 5876 5877 5877 5877 5877 5877 5877 5877 5877 5877 5877 5876 5876 5876 5876 5875 5875 5875 5875 5875 5874
5853 5854 5856 5856 5857 5857 5858 5859 5859 5859 5860 5861 5861 5862 5863 5864 5866 5867 5868 5869 5870 5871 5872 5873 5874 5875 5875 5875 5876 5877 5877 5877 5877 5877 5877 5877 5877 5876 5876 5876 5876 5875 5875 5874 5874 5874 5873 5873 5873
5851 5853 5854 5855 5855 5856 5857 5858 5858 5859 5859 5860 5861 5862 5863 5864 5865 5867 5868 5869 5871 5872 5872 5873 5874 5874 5875 5876 5876 5876 5877 5877 5876 5876 5876 5876 5876 5876 5876 5875 5875 5875 5874 5873 5873 5872 5872 5872 5872
5849 5851 5852 5853 5854 5854 5855 5856 5857 5858 5859 5860 5861 5862 5863 5864 5865 5866 5868 5869 5870 5872 5872 5873 5874 5874 5875 5875 5876 5876 5876 5877 5876 5876 5876 5876 5876 5876 5875 5875 5874 5874 5873 5873 5872 5871 5871 5870 5870
5847 5849 5851 5851 5852 5853 5854 5855 5856 5857 5858 5859 5861 5862 5862 5864 5865 5866 5867 5869 5870 5872 5872 5873 5874 5874 5875 5875 5876 5876 5876 5876 5876 5876 5876 5876 5876 5875 5875 5874 5874 5873 5872 5872 5871 5870 5869 5869 5868
5846 5847 5848 5849 5850 5851 5853 5854 5855 5857 5858 5859 5860 5861 5862 5864 5865 5866 5867 5868 5870 5871 5872 5873 5874 5874 5875 5876 5876 5876 5876 5876 5876 5876 5876 5876 5875 5875 5874 5874 5873 5872 5871 5870 5869 5869 5868 5867 5867
5842 5845 5846 5847 5848 5850 5851 5852 5854 5855 5857 5858 5860 5861 5862 5864 5865 5866 5867 5869 5870 5871 5872 5873 5874 5874 5875 5875 5876 5876 5876 5876 5876 5876 5875 5875 5875 5874 5874 5873 5872 5871 5870 5869 5868 5867 5866 5865 5865
5840 5843 5844 5845 5847 5848 5849 5851 5853 5854 5856 5858 5859 5861 5862 5863 5865 5866 5867 5869 5870 5871 5872 5873 5874 5874 5875 5875 5876 5876 5876 5876 5876 5875 5875 5874 5874 5873 5872 5872 5871 5869 5868 5867 5866 5865 5864 5864 5863
5838 5840 5842 5844 5845 5847 5848 5850 5851 5853 5854 5856 5859 5860 5861 5863 5864 5866 5867 5869 5870 5871 5872 5873 5874 5874 5875 5875 5875 5875 5875 5875 5875 5875 5874 5874 5873 5872 5871 5870 5869 5868 5867 5866 5865 5863 5862 5862 5861
5836 5838 5840 5842 5844 5845 5847 5848 5850 5851 5853 5856 5858 5859 5861 5863 5864 5866 5867 5868 5870 5871 5872 5873 5873 5874 5874 5875 5875 5875 5875 5875 5874 5874 5873 5873 5872 5871 5870 5869 5867 5866 5865 5864 5863 5861 5860 5859 5858
5835 5837 5839 5841 5843 5844 5846 5847 5849 5850 5853 5855 5857 5859 5861 5863 5864 5866 5867 5868 5870 5871 5872 5873 5873 5874 5874 5874 5874 5874 5874 5874 5874 5873 5873 5872 5871 5869 5868 5867 5866 5864 5863 5862 5860 5859 5858 5857 5856
5834 5836 5838 5840 5842 5844 5845 5846 5848 5849 5852 5854 5856 5858 5860 5862 5864 5865 5867 5868 5869 5870 5872 5872 5873 5873 5874 5874 5874 5874 5874 5873 5873 5872 5872 5871 5869 5868 5867 5865 5864 5863 5861 5859 5858 5857 5855 5854 5853
5833 5835 5837 5839 5841 5842 5844 5845 5847 5849 5851 5854 5856 5858 5860 5862 5863 5865 5866 5867 5869 5870 5871 5872 5872 5873 5873 5873 5873 5873 5873 5873 5872 5871 5870 5869 5868 5867 5865 5864 5862 5861 5859 5857 5856 5854 5852 5851 5850
5832 5834 5836 5838 5840 5842 5844 5845 5847 5849 5851 5853 5855 5857 5859 5861 5863 5864 5866 5867 5868 5869 5870 5871 5872 5872 5873 5873 5873 5872 5872 5871 5871 5870 5869 5868 5867 5865 5864 5862 5860 5858 5857 5855 5853 5851 5850 5848 5847
5832 5834 5836 5838 5839 5841 5844 5845 5846 5848 5850 5853 5855 5857 5859 5860 5862 5863 5865 5866 5867 5868 5869 5870 5871 5871 5871 5872 5872 5871 5871 5870 5870 5869 5868 5866 5865 5863 5862 5860 5858 5856 5854 5852 5850 5849 5847 5845 5844
5831 5833 5835 5837 5838 5840 5842 5844 5846 5848 5850 5852 5854 5856 5858 5860 5861 5863 5864 5865 5866 5867 5868 5869 5869 5870 5870 5871 5871 5870 5870 5869 5868 5867 5866 5865 5863 5862 5860 5858 5856 5854 5852 5850 5848 5846 5844 5842 5841
5832 5833 5835 5836 5838 5839 5841 5844 5845 5848 5850 5852 5853 5855 5857 5859 5860 5862 5863 5864 5865 5866 5867 5868 5868 5868 5869 5869 5869 5869 5869 5868 5867 5866 5865 5863 5862 5860 5858 5856 5854 5852 5850 5847 5845 5843 5841 5840 5838
5831 5832 5834 5836 5837 5839 5841 5843 5845 5847 5849 5851 5853 5854 5856 5857 5859 5860 5861 5863 5864 5865 5866 5866 5867 5867 5868 5868 5868 5868 5867 5867 5866 5865 5863 5862 5860 5858 5856 5854 5852 5850 5847 5845 5843 5841 5838 5837 5835
5830 5832 5834 5836 5837 5839 5841 5843 5844 5846 5848 5850 5852 5853 5855 5856 5858 5859 5860 5862 5863 5864 5865 5865 5866 5866 5866 5867 5866 5866 5866 5865 5864 5863 5862 5860 5859 5857 5855 5852 5850 5848 5845 5843 5840 5838 5836 5834 5833
5830 5832 5834 5836 5837 5839 5841 5842 5844 5846 5847 5849 5851 5852 5854 5855 5857 5858 5859 5860 5862 5863 5864 5864 5865 5865 5865 5865 5865 5865 5865 5864 5863 5862 5860 5859 5857 5855 5853 5851 5848 5846 5843 5841 5838 5836 5834 5832 5831
5830 5832 5834 5835 5837 5838 5840 5842 5843 5845 5846 5848 5850 5851 5852 5854 5856 5857 5858 5859 5861 5862 5863 5863 5863 5863 5864 5864 5864 5864 5863 5863 5861 5860 5859 5857 5855 5853 5851 5849 5847 5844 5841 5839 5836 5834 5832 5830 5829
5831 5832 5833 5835 5836 5838 5839 5841 5843 5844 5846 5847 5849 5850 5851 5853 5854 5856 5857 5858 5860 5860 5861 5862 5862 5862 5863 5863 5863 5863 5862 5861 5860 5858 5857 5855 5854 5852 5850 5847 5845 5842 5840 5837 5834 5832 5830 5828 5827
5830 5832 5833 5834 5836 5837 5839 5840 5842 5843 5845 5847 5848 5849 5850 5852 5853 5855 5856 5857 5858 5859 5860 5860 5861 5861 5861 5862 5862 5861 5860 5859 5858 5857 5855 5854 5852 5850 5848 5846 5843 5841 5838 5835 5833 5831 5829 5827 5825
5830 5832 5833 5834 5835 5837 5838 5839 5842 5843 5844 5845 5847 5848 5849 5851 5852 5853 5855 5856 5857 5858 5859 5859 5860 5860 5860 5860 5860 5860 5859 5858 5857 5855 5854 5852 5850 5849 5847 5844 5842 5839 5836 5834 5831 5829 5827 5825 5824
5829 5831 5833 5834 5835 5836 5837 5838 5841 5842 5843 5844 5845 5846 5848 5849 5851 5852 5854 5855 5856 5857 5858 5858 5859 5859 5859 5859 5858 5858 5857 5856 5855 5854 5852 5851 5849 5847 5845 5843 5840 5838 5835 5832 5830 5828 5826 5824 5822
5829 5830 5832 5834 5834 5835 5836 5838 5840 5841 5842 5843 5844 5845 5847 5849 5850 5851 5853 5854 5855 5856 5856 5857 5857 5858 5858 5857 5857 5856 5855 5855 5853 5852 5851 5849 5848 5846 5843 5841 5839 5836 5833 5831 5828 5826 5824 5822 5820
5829 5830 5831 5833 5834 5835 5836 5837 5839 5840 5841 5842 5843 5844 5846 5848 5849 5850 5851 5852 5853 5854 5855 5855 5856 5856 5856 5855 5855 5854 5854 5853 5852 5851 5849 5848 5846 5844 5842 5839 5837 5834 5832 5829 5827 5824 5822 5820 5818
5828 5830 5830 5832 5834 5835 5836 5839 5838 5839 5840 5841 5842 5844 5845 5846 5848 5849 5850 5851 5852 5852 5853 5854 5854 5854 5854 5854 5853 5853 5852 5851 5850 5849 5848 5846 5844 5842 5840 5838 5835 5833 5830 5827 5825 5822 5820 5818 5816
5827 5828 5830 5832 5833 5834 5835 5839 5837 5838 5839 5840 5841 5842 5844 5845 5846 5847 5848 5849 5850 5851 5851 5852 5852 5852 5852 5852 5851 5851 5850 5849 5848 5847 5846 5844 5842 5840 5838 5836 5833 5831 5828 5825 5823 5820 5817 5815 5813
Wind_Speed
9 9 8 7 7 6 5 4 3 2 2 4 5 5 5 5 5 5 5 6 5 5 5 4 3 3 3 3 2 2 1 1 1 1 2 3 3 4 4 5 6 6 6 6 6 7 7 6 6
10 9 8 8 8 7 6 5 4 3 3 4 5 5 5 5 5 5 5 6 5 6 5 4 3 3 3 2 2 1 0 1 1 2 3 3 3 4 4 5 6 7 7 7 7 7 7 7 7
10 9 9 9 8 8 7 6 5 4 4 4 5 5 5 5 6 5 5 5 6 6 5 5 4 3 2 2 1 0 1 2 1 2 3 3 4 5 5 6 6 7 7 7 7 7 8 8 7
10 9 9 9 9 9 8 7 5 5 5 5 5 4 4 6 6 6 6 6 6 6 6 5 4 3 2 2 1 1 1 2 2 2 3 4 4 5 6 6 7 7 7 7 7 8 8 8 8
11 10 9 10 10 9 9 7 6 5 5 5 4 4 5 6 6 6 6 6 6 6 6 6 5 4 3 2 1 0 1 2 2 3 3 4 5 6 6 7 7 7 8 8 8 8 8 8 8
12 10 9 9 9 9 9 8 6 5 5 5 4 5 6 6 6 6 6 7 6 6 6 6 5 4 3 2 1 0 1 2 2 3 4 4 4 5 6 7 8 8 8 8 8 8 9 9 9
11 10 10 9 9 9 9 9 8 6 5 5 6 6 6 6 6 6 6 7 7 6 6 5 5 4 2 1 0 1 1 2 2 3 4 4 5 5 6 7 8 8 9 9 9 9 9 10 10
11 10 10 10 10 9 10 9 8 8 7 7 7 7 7 6 6 6 6 7 7 7 6 5 4 3 2 1 1 1 1 2 3 4 4 5 5 6 7 7 8 9 9 9 9 10 10 10 10
11 10 10 10 10 10 9 9 8 9 9 8 8 8 7 6 6 6 7 7 7 7 6 5 4 3 2 1 1 1 2 3 3 4 5 5 6 7 7 8 8 9 9 10 10 10 10 10 10
11 10 9 9 10 9 9 8 9 9 9 9 9 8 8 8 8 8 8 8 7 6 5 4 3 3 2 2 2 2 3 4 4 5 5 6 7 7 8 8 9 10 10 11 11 11 11 11 11
10 9 9 9 10 9 8 8 9 10 10 9 10 9 8 9 8 8 8 7 7 6 5 4 3 2 2 2 2 3 4 4 5 5 6 7 7 8 9 9 10 10 11 11 11 11 11 11 11
10 10 9 9 9 9 8 8 9 11 10 9 9 10 10 10 9 9 8 8 7 6 6 4 3 2 2 2 3 4 4 5 5 6 7 8 8 9 10 10 10 11 11 12 12 12 12 12 12
11 10 9 9 9 9 8 7 9 11 11 10 10 10 10 10 10 9 9 8 7 7 6 4 3 3 3 3 4 4 4 5 6 6 7 8 9 9 10 11 11 12 12 12 13 13 13 12 12
11 10 9 9 9 9 9 7 9 10 11 10 10 10 10 10 10 9 9 8 8 7 6 5 4 4 4 4 4 4 5 5 6 7 8 9 9 10 11 11 12 12 12 13 13 13 13 13 12
10 9 9 8 8 9 9 8 9 10 9 9 10 10 10 10 10 9 9 8 8 7 6 6 6 5 5 4 4 5 5 6 7 7 8 10 10 11 11 12 12 13 13 13 14 14 13 13 12
9 9 8 8 8 9 9 9 10 9 9 10 10 10 10 11 10 9 9 8 7 7 7 6 6 6 5 5 5 5 6 7 8 8 9 10 11 11 12 12 13 14 14 14 14 13 13 13 12
9 9 8 8 9 9 9 9 9 9 10 10 10 10 10 11 10 9 8 8 8 7 6 7 6 6 6 5 5 5 6 7 7 8 9 10 11 12 12 13 14 14 14 14 14 14 13 13 12
9 10 9 9 9 9 9 10 9 10 11 11 10 10 10 10 9 9 9 7 7 6 6 6 5 5 5 5 5 5 6 7 8 8 10 11 11 12 13 14 14 14 14 14 14 14 13 13 12
9 10 9 8 9 9 9 9 9 10 10 11 10 10 10 10 10 9 9 8 7 6 5 5 5 5 5 4 4 5 6 7 8 9 10 11 11 12 13 14 14 14 15 15 14 14 13 13 12
9 10 9 9 9 9 10 9 10 10 10 10 10 10 10 10 10 9 9 8 7 7 6 5 5 5 4 4 4 5 6 7 8 9 10 11 12 12 13 14 14 15 15 15 15 14 13 12 11
9 9 9 9 8 9 9 10 10 11 10 10 10 10 11 10 10 10 10 8 8 7 7 5 4 4 4 5 5 6 7 8 9 10 10 11 11 12 13 14 14 15 15 15 14 14 12 11 11
8 8 9 9 9 9 10 10 10 11 11 10 11 11 11 11 10 10 9 8 8 7 6 5 5 5 5 5 5 6 7 8 9 10 11 11 12 12 13 14 14 15 15 15 14 13 12 11 10
8 9 9 9 9 9 10 10 10 11 10 10 11 11 11 11 11 10 9 9 7 6 5 5 5 5 5 5 6 6 7 8 9 10 11 11 12 13 14 14 15 15 15 14 13 12 12 11 10
7 8 8 8 9 9 9 9 10 10 10 11 11 10 10 10 10 10 9 8 7 6 5 4 4 4 4 5 5 6 7 8 9 10 10 11 12 13 14 15 15 15 15 14 13 12 12 11 10
8 8 9 9 8 9 9 9 9 10 10 11 11 10 10 10 10 10 8 8 7 6 5 4 4 4 4 5 6 7 7 8 9 9 10 11 11 13 14 14 14 14 14 14 13 12 12 11 11
7 8 8 7 7 8 9 9 9 9 10 10 10 10 10 10 10 9 8 8 7 6 4 4 4 4 5 5 6 7 8 8 9 9 10 11 12 13 13 14 14 14 14 14 13 12 12 11 11
8 7 7 6 6 8 9 9 9 9 10 10 10 10 10 10 9 9 8 8 7 6 5 4 4 4 5 6 6 7 7 8 9 9 9 10 11 13 13 14 14 14 14 14 13 13 12 12 11
8 8 7 6 5 7 7 8 8 8 9 10 10 10 10 10 9 8 8 7 6 6 6 5 5 5 5 6 6 7 8 8 9 9 10 10 12 12 13 14 14 15 15 14 14 14 13 12 11
8 8 8 7 5 5 6 7 8 8 8 8 9 10 10 9 9 9 8 8 7 7 6 6 6 6 6 6 7 8 9 9 10 10 11 11 12 12 13 15 15 15 15 15 15 14 14 13 12
8 8 7 6 5 5 6 6 8 8 8 8 8 9 9 9 9 8 8 8 8 7 7 6 6 7 7 7 8 9 9 10 10 11 11 12 13 13 14 15 16 16 16 16 16 15 15 14 14
Wind_Direction
271 270 271 272 277 279 276 283 289 250 237 201 191 186 188 176 159 155 153 152 148 149 149 151 142 144 139 135 130 125 112 69 31 10 359 353 349 347 342 335 331 327 323 319 316 313 312 310 304
267 267 265 266 270 270 267 269 276 267 244 205 193 178 173 173 163 160 161 158 158 157 155 154 151 144 139 140 146 157 33 320 324 339 345 347 344 343 341 337 334 330 326 322 318 315 313 311 305
264 263 260 262 264 264 262 261 257 250 219 204 189 176 172 169 161 164 162 158 161 161 160 160 158 152 144 149 177 216 304 295 314 329 335 339 338 338 336 333 333 331 328 324 320 315 312 307 304
260 258 257 257 259 259 253 247 245 238 228 209 196 181 168 163 164 166 164 162 165 167 169 166 163 157 150 144 157 272 310 306 319 332 333 335 333 333 331 330 329 328 327 325 321 315 311 307 303
256 254 254 255 256 257 246 234 237 238 219 195 194 189 174 168 171 171 165 167 170 167 166 162 158 151 142 136 132 323 322 320 334 336 337 331 328 327 326 325 325 324 323 322 319 317 314 309 306
250 249 250 252 249 249 240 230 226 228 209 191 179 176 174 174 173 168 162 169 171 167 164 160 156 151 145 133 106 27 349 335 334 331 332 330 327 325 323 321 321 321 320 318 315 313 312 310 307
246 245 247 248 246 244 237 228 220 214 200 187 183 177 172 165 168 167 170 169 168 166 165 160 156 152 150 156 157 310 325 327 324 323 324 323 323 325 325 322 320 319 319 318 315 311 308 306 304
242 243 244 246 243 238 230 222 218 209 200 189 180 175 174 171 176 175 178 167 166 165 165 162 163 164 169 194 250 299 309 314 318 322 322 320 319 320 320 319 320 320 320 319 316 311 307 305 301
238 240 239 242 239 237 224 218 215 198 192 188 181 179 180 177 176 174 174 170 168 167 168 167 170 178 192 229 271 292 302 309 315 319 319 316 318 319 319 316 316 317 318 317 315 312 308 306 303
235 238 237 237 236 238 222 213 209 199 190 186 183 182 179 174 174 172 174 174 171 170 171 171 181 196 210 247 278 291 306 316 316 317 316 315 318 318 317 316 315 315 314 314 314 311 308 304 301
229 232 231 230 231 235 227 218 206 205 197 190 186 183 180 174 170 171 176 177 179 177 176 180 189 212 236 261 277 290 304 316 320 319 319 318 319 319 319 319 319 316 314 312 311 309 306 303 299
222 224 222 222 225 229 228 217 205 204 201 196 188 186 183 179 177 177 176 178 184 187 186 188 200 224 253 271 285 293 302 312 316 317 319 320 320 320 320 320 319 318 316 314 311 308 305 302 299
216 220 222 219 222 225 226 216 202 194 193 192 190 186 184 178 176 180 181 180 187 193 192 194 215 237 256 266 278 286 295 303 309 315 320 321 321 319 318 318 319 319 318 316 314 309 306 303 299
216 215 216 217 217 216 217 209 192 182 183 186 188 184 183 181 182 186 188 186 188 194 201 211 229 244 251 260 273 288 297 303 307 313 317 320 322 321 320 321 321 319 317 316 315 312 309 305 300
215 214 215 217 213 211 209 197 185 181 184 183 183 187 188 188 190 192 193 193 194 200 206 217 234 246 255 264 279 292 299 305 309 315 320 323 324 325 323 322 321 320 318 317 315 313 311 307 302
212 212 211 213 212 211 204 194 192 187 188 185 183 187 191 192 192 194 196 199 203 205 211 224 236 244 254 266 282 290 301 311 313 318 324 326 327 327 327 325 324 322 320 319 317 315 312 308 302
208 208 204 203 207 205 197 194 195 191 182 182 182 185 189 192 194 196 196 198 203 205 216 228 241 248 249 261 274 288 299 307 316 320 324 326 326 327 328 328 327 325 323 321 319 317 314 309 303
206 208 207 202 207 202 198 197 194 190 181 183 185 186 189 192 199 203 200 201 204 213 223 229 240 240 244 259 278 293 306 314 319 323 325 327 327 327 328 328 327 326 325 323 320 318 315 311 305
207 209 207 204 207 204 200 197 198 197 187 188 186 186 190 194 199 205 208 208 210 215 223 228 242 249 255 268 284 302 314 321 324 326 328 329 328 327 328 329 329 329 327 325 323 321 317 314 308
203 202 202 198 198 200 198 197 195 195 193 193 192 195 195 200 203 205 207 214 218 223 224 229 240 254 266 273 290 305 314 319 322 325 329 330 330 330 331 332 332 331 329 327 325 323 320 316 313
198 200 198 198 199 198 201 199 196 197 197 197 198 196 199 204 207 208 212 216 219 221 223 227 239 256 269 281 294 303 312 318 322 324 328 330 331 333 336 336 335 332 330 330 328 326 323 321 318
198 197 199 202 206 207 202 199 200 198 201 204 201 202 204 208 209 212 212 212 210 213 219 228 245 261 276 283 291 302 312 318 321 323 326 330 332 334 336 336 337 336 335 335 334 333 329 324 320
194 199 203 207 214 213 206 207 205 205 207 204 200 202 206 209 211 210 206 204 203 210 219 234 251 269 284 289 296 304 311 319 323 324 326 330 333 335 337 337 336 337 337 338 338 336 333 328 323
197 199 203 208 212 213 210 212 212 210 210 208 203 202 204 204 202 205 205 205 207 214 224 244 260 273 285 292 301 306 312 319 323 326 329 330 332 335 336 338 338 338 338 339 340 339 337 333 328
198 204 209 215 218 217 213 217 212 206 208 207 203 203 203 201 202 206 210 210 214 220 231 250 265 276 285 296 305 309 314 320 324 328 331 333 334 335 335 337 339 340 340 340 338 338 338 335 332
201 206 209 211 214 216 214 215 208 206 205 207 207 206 205 203 204 208 212 211 216 225 233 247 263 275 283 294 304 311 317 320 322 326 331 333 335 335 336 338 339 339 340 339 338 336 334 333 332
202 202 202 214 215 215 215 212 211 213 212 211 210 207 205 204 205 209 215 213 216 225 238 248 262 276 288 299 305 311 318 323 326 326 329 333 333 335 337 338 339 339 338 337 337 336 332 330 328
202 201 205 216 224 223 219 218 215 215 216 215 213 209 208 210 212 214 217 219 223 232 239 244 261 276 290 301 308 314 318 322 325 328 330 333 334 336 338 340 340 339 339 337 336 334 331 328 325
199 203 210 216 225 223 223 214 214 216 215 213 211 211 211 214 217 219 226 228 228 234 240 252 266 278 290 297 303 309 313 316 320 322 327 330 330 331 334 336 338 339 338 335 333 330 328 328 325
207 201 209 218 219 220 225 213 218 216 213 211 209 210 213 217 218 219 222 224 230 240 245 258 268 278 287 293 299 304 308 312 315 318 321 324 326 328 329 332 334 335 335 333 331 329 327 326 324